Want more features on Pastebin? Sign Up, it's FREE!
Guest

Untitled

By: a guest on Apr 5th, 2011  |  syntax: None  |  size: 54.08 KB  |  views: 267  |  expires: Never
download  |  raw  |  embed  |  report abuse  |  print
Text below is selected. Please press Ctrl+C to copy to your clipboard. (⌘+C on Mac)
  1. 21:58:13 T:2488 M:3568140288  NOTICE: -----------------------------------------------------------------------
  2. 21:58:13 T:2488 M:3568136192  NOTICE: Starting XBMC, Platform: Windows 7, 64-bit (WoW) Service Pack 1 build 7601. Built on Apr  4 2011 (Git:20110403-bd95d07, compiler 1600)
  3. 21:58:13 T:2488 M:3568136192  NOTICE: Intel(R) Core(TM) i7 CPU         920  @ 2.67GHz
  4. 21:58:13 T:2488 M:3568136192  NOTICE: Desktop Resolution: 1920x1200 32Bit at 60Hz
  5. 21:58:13 T:2488 M:3568136192  NOTICE: Running with administrator rights
  6. 21:58:13 T:2488 M:3568132096  NOTICE: Aero is enabled
  7. 21:58:13 T:2488 M:3568132096  NOTICE: special://xbmc/ is mapped to: C:\Program Files (x86)\XBMC
  8. 21:58:13 T:2488 M:3568132096  NOTICE: special://xbmcbin/ is mapped to: C:\Program Files (x86)\XBMC
  9. 21:58:13 T:2488 M:3568132096  NOTICE: special://masterprofile/ is mapped to: C:\Users\Gumby\AppData\Roaming\XBMC\userdata
  10. 21:58:13 T:2488 M:3568132096  NOTICE: special://home/ is mapped to: C:\Users\Gumby\AppData\Roaming\XBMC
  11. 21:58:13 T:2488 M:3568132096  NOTICE: special://temp/ is mapped to: C:\Users\Gumby\AppData\Roaming\XBMC\cache
  12. 21:58:13 T:2488 M:3568128000  NOTICE: The executable running is: C:\Program Files (x86)\XBMC\XBMC.exe
  13. 21:58:13 T:2488 M:3568128000  NOTICE: Log File is located: C:\Users\Gumby\AppData\Roaming\XBMC\xbmc.log
  14. 21:58:13 T:2488 M:3568128000  NOTICE: -----------------------------------------------------------------------
  15. 21:58:13 T:2488 M:3568103424  NOTICE: Setup SDL
  16. 21:58:13 T:2488 M:3567894528  NOTICE: Found screen: Acer G24 on ATI Radeon HD 5800 Series , adapter 0.
  17. 21:58:13 T:2488 M:3567894528  NOTICE: Found screen: Dell E228WFP on ATI Radeon HD 5800 Series , adapter 1.
  18. 21:58:13 T:2488 M:3567890432  NOTICE: Primary mode: 1920x1200 @ 60.00 - Full Screen
  19. 21:58:13 T:2488 M:3567890432  NOTICE: Secondary mode: 1680x1050 @ 60.00 - Full Screen #2
  20. 21:58:13 T:2488 M:3567890432  NOTICE: Additional mode: 640x480 @ 60.00 - Full Screen
  21. 21:58:13 T:2488 M:3567890432  NOTICE: Additional mode: 640x480 @ 59.94 - Full Screen
  22. 21:58:13 T:2488 M:3567890432  NOTICE: Additional mode: 640x480 @ 67.00 - Full Screen
  23. 21:58:13 T:2488 M:3567890432  NOTICE: Additional mode: 640x480 @ 72.00 - Full Screen
  24. 21:58:13 T:2488 M:3567890432  NOTICE: Additional mode: 640x480 @ 75.00 - Full Screen
  25. 21:58:13 T:2488 M:3567890432  NOTICE: Additional mode: 720x480 @ 60.00 - Full Screen
  26. 21:58:13 T:2488 M:3567890432  NOTICE: Additional mode: 720x480 @ 59.94 - Full Screen
  27. 21:58:13 T:2488 M:3567890432  NOTICE: Additional mode: 720x576 @ 50.00 - Full Screen
  28. 21:58:13 T:2488 M:3567890432  NOTICE: Additional mode: 720x576 @ 60.00 - Full Screen
  29. 21:58:13 T:2488 M:3567890432  NOTICE: Previous line repeats 2 times.
  30. 21:58:13 T:2488 M:3567890432  NOTICE: Additional mode: 800x600 @ 56.00 - Full Screen
  31. 21:58:13 T:2488 M:3567890432  NOTICE: Additional mode: 800x600 @ 60.00 - Full Screen
  32. 21:58:13 T:2488 M:3567890432  NOTICE: Additional mode: 800x600 @ 72.00 - Full Screen
  33. 21:58:13 T:2488 M:3567890432  NOTICE: Additional mode: 800x600 @ 75.00 - Full Screen
  34. 21:58:13 T:2488 M:3567890432  NOTICE: Additional mode: 1024x768 @ 60.00 - Full Screen
  35. 21:58:13 T:2488 M:3567890432  NOTICE: Additional mode: 1024x768 @ 70.00 - Full Screen
  36. 21:58:13 T:2488 M:3567890432  NOTICE: Additional mode: 1024x768 @ 75.00 - Full Screen
  37. 21:58:13 T:2488 M:3567890432  NOTICE: Additional mode: 1152x648 @ 50.00 - Full Screen
  38. 21:58:13 T:2488 M:3567890432  NOTICE: Additional mode: 1152x648 @ 59.94 - Full Screen
  39. 21:58:13 T:2488 M:3567890432  NOTICE: Additional mode: 1152x648 @ 60.00 - Full Screen
  40. 21:58:13 T:2488 M:3567890432  NOTICE: Additional mode: 1280x720 @ 50.00 - Full Screen
  41. 21:58:13 T:2488 M:3567890432  NOTICE: Additional mode: 1280x720 @ 60.00 - Full Screen
  42. 21:58:13 T:2488 M:3567890432  NOTICE: Additional mode: 1280x720 @ 59.94 - Full Screen
  43. 21:58:13 T:2488 M:3567890432  NOTICE: Additional mode: 1280x768 @ 60.00 - Full Screen
  44. 21:58:13 T:2488 M:3567890432  NOTICE: Previous line repeats 2 times.
  45. 21:58:13 T:2488 M:3567890432  NOTICE: Additional mode: 1280x768 @ 75.00 - Full Screen
  46. 21:58:13 T:2488 M:3567890432  NOTICE: Previous line repeats 2 times.
  47. 21:58:13 T:2488 M:3567890432  NOTICE: Additional mode: 1280x800 @ 60.00 - Full Screen
  48. 21:58:13 T:2488 M:3567890432  NOTICE: Additional mode: 1280x800 @ 75.00 - Full Screen
  49. 21:58:13 T:2488 M:3567890432  NOTICE: Additional mode: 1280x960 @ 60.00 - Full Screen
  50. 21:58:13 T:2488 M:3567890432  NOTICE: Previous line repeats 2 times.
  51. 21:58:13 T:2488 M:3567890432  NOTICE: Additional mode: 1280x960 @ 75.00 - Full Screen
  52. 21:58:13 T:2488 M:3567890432  NOTICE: Previous line repeats 2 times.
  53. 21:58:13 T:2488 M:3567890432  NOTICE: Additional mode: 1280x1024 @ 60.00 - Full Screen
  54. 21:58:13 T:2488 M:3567890432  NOTICE: Additional mode: 1280x1024 @ 75.00 - Full Screen
  55. 21:58:13 T:2488 M:3567923200  NOTICE: Additional mode: 1360x768 @ 60.00 - Full Screen
  56. 21:58:13 T:2488 M:3567890432  NOTICE: Previous line repeats 2 times.
  57. 21:58:13 T:2488 M:3567890432  NOTICE: Additional mode: 1360x768 @ 75.00 - Full Screen
  58. 21:58:13 T:2488 M:3567890432  NOTICE: Previous line repeats 2 times.
  59. 21:58:13 T:2488 M:3567890432  NOTICE: Additional mode: 1400x1050 @ 60.00 - Full Screen
  60. 21:58:13 T:2488 M:3567890432  NOTICE: Previous line repeats 2 times.
  61. 21:58:13 T:2488 M:3567890432  NOTICE: Additional mode: 1440x900 @ 60.00 - Full Screen
  62. 21:58:13 T:2488 M:3567890432  NOTICE: Additional mode: 1440x900 @ 75.00 - Full Screen
  63. 21:58:13 T:2488 M:3567890432  NOTICE: Additional mode: 1600x1200 @ 60.00 - Full Screen
  64. 21:58:13 T:2488 M:3567890432  NOTICE: Additional mode: 1680x1050 @ 50.00 - Full Screen
  65. 21:58:13 T:2488 M:3567890432  NOTICE: Previous line repeats 2 times.
  66. 21:58:13 T:2488 M:3567890432  NOTICE: Additional mode: 1680x1050 @ 60.00 - Full Screen
  67. 21:58:13 T:2488 M:3567890432  NOTICE: Previous line repeats 2 times.
  68. 21:58:13 T:2488 M:3567890432  NOTICE: Additional mode: 1680x1050 @ 59.94 - Full Screen
  69. 21:58:13 T:2488 M:3567890432  NOTICE: Previous line repeats 2 times.
  70. 21:58:13 T:2488 M:3567890432  NOTICE: Additional mode: 1776x1000 @ 50.00 - Full Screen
  71. 21:58:13 T:2488 M:3567890432  NOTICE: Additional mode: 1776x1000 @ 59.94 - Full Screen
  72. 21:58:13 T:2488 M:3567890432  NOTICE: Additional mode: 1776x1000 @ 60.00 - Full Screen
  73. 21:58:13 T:2488 M:3567890432  NOTICE: Additional mode: 1776x1000 @ 25.00i - Full Screen
  74. 21:58:13 T:2488 M:3567890432  NOTICE: Additional mode: 1776x1000 @ 29.97i - Full Screen
  75. 21:58:13 T:2488 M:3567890432  NOTICE: Additional mode: 1776x1000 @ 30.00i - Full Screen
  76. 21:58:13 T:2488 M:3567890432  NOTICE: Additional mode: 1920x1080 @ 50.00 - Full Screen
  77. 21:58:13 T:2488 M:3567890432  NOTICE: Additional mode: 1920x1080 @ 60.00 - Full Screen
  78. 21:58:13 T:2488 M:3567890432  NOTICE: Additional mode: 1920x1080 @ 59.94 - Full Screen
  79. 21:58:13 T:2488 M:3567890432  NOTICE: Additional mode: 1920x1080 @ 25.00i - Full Screen
  80. 21:58:13 T:2488 M:3567890432  NOTICE: Additional mode: 1920x1080 @ 30.00i - Full Screen
  81. 21:58:13 T:2488 M:3567890432  NOTICE: Additional mode: 1920x1080 @ 29.97i - Full Screen
  82. 21:58:13 T:2488 M:3567890432  NOTICE: Additional mode: 1920x1200 @ 60.00 - Full Screen
  83. 21:58:13 T:2488 M:3567890432  NOTICE: Additional mode: 640x480 @ 60.00 - Full Screen #2
  84. 21:58:13 T:2488 M:3567890432  NOTICE: Additional mode: 640x480 @ 59.94 - Full Screen #2
  85. 21:58:13 T:2488 M:3567890432  NOTICE: Additional mode: 640x480 @ 75.00 - Full Screen #2
  86. 21:58:13 T:2488 M:3567890432  NOTICE: Additional mode: 720x480 @ 60.00 - Full Screen #2
  87. 21:58:13 T:2488 M:3567890432  NOTICE: Previous line repeats 2 times.
  88. 21:58:13 T:2488 M:3567890432  NOTICE: Additional mode: 720x480 @ 75.00 - Full Screen #2
  89. 21:58:13 T:2488 M:3567890432  NOTICE: Previous line repeats 2 times.
  90. 21:58:13 T:2488 M:3567890432  NOTICE: Additional mode: 720x576 @ 60.00 - Full Screen #2
  91. 21:58:13 T:2488 M:3567890432  NOTICE: Previous line repeats 2 times.
  92. 21:58:13 T:2488 M:3567890432  NOTICE: Additional mode: 720x576 @ 75.00 - Full Screen #2
  93. 21:58:13 T:2488 M:3567890432  NOTICE: Previous line repeats 2 times.
  94. 21:58:13 T:2488 M:3567890432  NOTICE: Additional mode: 800x600 @ 60.00 - Full Screen #2
  95. 21:58:13 T:2488 M:3567890432  NOTICE: Additional mode: 800x600 @ 75.00 - Full Screen #2
  96. 21:58:13 T:2488 M:3567890432  NOTICE: Additional mode: 1024x768 @ 60.00 - Full Screen #2
  97. 21:58:13 T:2488 M:3567890432  NOTICE: Additional mode: 1024x768 @ 75.00 - Full Screen #2
  98. 21:58:13 T:2488 M:3567890432  NOTICE: Additional mode: 1152x864 @ 60.00 - Full Screen #2
  99. 21:58:13 T:2488 M:3567890432  NOTICE: Previous line repeats 2 times.
  100. 21:58:13 T:2488 M:3567890432  NOTICE: Additional mode: 1152x864 @ 75.00 - Full Screen #2
  101. 21:58:13 T:2488 M:3567890432  NOTICE: Additional mode: 1280x720 @ 60.00 - Full Screen #2
  102. 21:58:13 T:2488 M:3567890432  NOTICE: Previous line repeats 2 times.
  103. 21:58:13 T:2488 M:3567890432  NOTICE: Additional mode: 1280x720 @ 59.94 - Full Screen #2
  104. 21:58:13 T:2488 M:3567890432  NOTICE: Additional mode: 1280x720 @ 75.00 - Full Screen #2
  105. 21:58:13 T:2488 M:3567890432  NOTICE: Previous line repeats 2 times.
  106. 21:58:13 T:2488 M:3567890432  NOTICE: Additional mode: 1280x768 @ 60.00 - Full Screen #2
  107. 21:58:13 T:2488 M:3567890432  NOTICE: Previous line repeats 2 times.
  108. 21:58:13 T:2488 M:3567890432  NOTICE: Additional mode: 1280x768 @ 75.00 - Full Screen #2
  109. 21:58:13 T:2488 M:3567890432  NOTICE: Previous line repeats 2 times.
  110. 21:58:13 T:2488 M:3567890432  NOTICE: Additional mode: 1280x800 @ 60.00 - Full Screen #2
  111. 21:58:13 T:2488 M:3567890432  NOTICE: Previous line repeats 2 times.
  112. 21:58:13 T:2488 M:3567890432  NOTICE: Additional mode: 1280x800 @ 75.00 - Full Screen #2
  113. 21:58:13 T:2488 M:3567890432  NOTICE: Previous line repeats 2 times.
  114. 21:58:13 T:2488 M:3567890432  NOTICE: Additional mode: 1280x960 @ 60.00 - Full Screen #2
  115. 21:58:13 T:2488 M:3567890432  NOTICE: Previous line repeats 2 times.
  116. 21:58:13 T:2488 M:3567890432  NOTICE: Additional mode: 1280x960 @ 75.00 - Full Screen #2
  117. 21:58:13 T:2488 M:3567890432  NOTICE: Previous line repeats 2 times.
  118. 21:58:13 T:2488 M:3567890432  NOTICE: Additional mode: 1280x1024 @ 60.00 - Full Screen #2
  119. 21:58:13 T:2488 M:3567890432  NOTICE: Additional mode: 1280x1024 @ 75.00 - Full Screen #2
  120. 21:58:13 T:2488 M:3567890432  NOTICE: Additional mode: 1360x768 @ 60.00 - Full Screen #2
  121. 21:58:13 T:2488 M:3567890432  NOTICE: Previous line repeats 2 times.
  122. 21:58:13 T:2488 M:3567890432  NOTICE: Additional mode: 1400x1050 @ 60.00 - Full Screen #2
  123. 21:58:13 T:2488 M:3567890432  NOTICE: Previous line repeats 2 times.
  124. 21:58:13 T:2488 M:3567890432  NOTICE: Additional mode: 1440x900 @ 60.00 - Full Screen #2
  125. 21:58:13 T:2488 M:3567890432  NOTICE: Previous line repeats 2 times.
  126. 21:58:13 T:2488 M:3567890432  NOTICE: Additional mode: 1680x1050 @ 60.00 - Full Screen #2
  127. 21:58:13 T:2488 M:3567890432  NOTICE: load settings...
  128. 21:58:13 T:2488 M:3567792128  NOTICE: special://profile/ is mapped to: special://masterprofile/
  129. 21:58:13 T:2488 M:3567788032  NOTICE: loading special://masterprofile/guisettings.xml
  130. 21:58:13 T:2488 M:3567702016  NOTICE: Getting hardware information now...
  131. 21:58:13 T:2488 M:3567702016  NOTICE: Checking resolution 11
  132. 21:58:13 T:2488 M:3567689728  NOTICE: Loading player core factory settings from special://xbmc/system/playercorefactory.xml.
  133. 21:58:13 T:2488 M:3567673344  NOTICE: Loaded playercorefactory configuration
  134. 21:58:13 T:2488 M:3567673344  NOTICE: Loading player core factory settings from special://masterprofile/playercorefactory.xml.
  135. 21:58:13 T:2488 M:3567673344  NOTICE: special://masterprofile/playercorefactory.xml does not exist. Skipping.
  136. 21:58:13 T:2488 M:3567673344  NOTICE: No advancedsettings.xml to load (special://masterprofile/advancedsettings.xml)
  137. 21:58:13 T:2488 M:3567673344  NOTICE: Default DVD Player: dvdplayer
  138. 21:58:13 T:2488 M:3567673344  NOTICE: Default Video Player: dvdplayer
  139. 21:58:13 T:2488 M:3567673344  NOTICE: Default Audio Player: paplayer
  140. 21:58:13 T:2488 M:3567665152  NOTICE: Loading media sources from special://masterprofile/sources.xml
  141. 21:58:13 T:2488 M:3566145536  NOTICE: Enabled Joystick: Controller (XBOX 360 For Windows)
  142. 21:58:13 T:2488 M:3566145536  NOTICE: Details: Total Axis: 5 Total Hats: 1 Total Buttons: 10
  143. 21:58:14 T:2488 M:3552915456  NOTICE: initializing playlistplayer
  144. 21:58:14 T:2488 M:3552915456  NOTICE: DONE initializing playlistplayer
  145. 21:58:14 T:2488 M:3542106112  NOTICE: CApplication::UpdateLibraries - Starting video library startup scan
  146. 21:58:14 T:3012 M:3540938752  NOTICE: VideoInfoScanner: Starting scan ..
  147. 21:58:14 T:2488 M:3538780160  NOTICE: initialize done
  148. 21:58:14 T:2488 M:3538771968  NOTICE: Running the application...
  149. 21:58:14 T:2488 M:3538624512  NOTICE: Webserver: Starting...
  150. 21:58:14 T:2488 M:3536703488  NOTICE: WebServer: Started the webserver
  151. 21:58:14 T:2488 M:3536699392  NOTICE: starting upnp server
  152. 21:58:14 T:2488 M:3535798272  NOTICE: starting upnp renderer
  153. 21:58:14 T:2488 M:3535794176  NOTICE: ES: Starting event server
  154. 21:58:14 T:3320 M:3535683584  NOTICE: ES: Starting UDP Event server on 0.0.0.0:9777
  155. 21:58:14 T:3320 M:3535679488  NOTICE: UDP: Listening on port 9777
  156. 21:58:14 T:2012 M:3535540224  NOTICE: -->Python Interpreter Initialized<--
  157. 21:58:14 T:1520 M:3522789376  NOTICE: -->Python Interpreter Initialized<--
  158. 21:58:14 T:2012 M:3510009856  NOTICE: Trakt Utilities: service: script.TraktUtilities - version: 0.2.1
  159. 21:58:14 T:2012 M:3510034432  NOTICE: Trakt Utilities: autostart sync seen movies
  160. 21:58:15 T:2488 M:3507953664   ERROR: Texture manager unable to load file: C:\Users\Gumby\AppData\Roaming\XBMC\addons\script.TraktUtilities\icon.png
  161. 21:58:15 T:2792 M:3507683328  NOTICE: -->Python Interpreter Initialized<--
  162. 21:58:15 T:7020 M:3506204672   ERROR: CRemoteControl::Connect - failed to connect
  163. 21:58:16 T:2820 M:3508359168   ERROR: Texture manager unable to load file: special://profile/Thumbnails/Video/8/auto-8de9a525.tbn
  164. 21:58:16 T:2820 M:3508338688   ERROR: Texture manager unable to load file: special://profile/Thumbnails/Video/f/auto-f10fc5ce.tbn
  165. 21:58:16 T:2820 M:3508256768   ERROR: Texture manager unable to load file: special://profile/Thumbnails/Video/b/auto-bafe3c1e.tbn
  166. 21:58:16 T:2820 M:3508277248   ERROR: Texture manager unable to load file: special://profile/Thumbnails/Video/1/auto-1ef87070.tbn
  167. 21:58:16 T:2820 M:3508195328   ERROR: Texture manager unable to load file: special://profile/Thumbnails/Video/0/auto-0174cd22.tbn
  168. 21:58:19 T:3012 M:3492851712  NOTICE: VideoInfoScanner: Finished scan. Scanning for video info took 00:05
  169. 21:58:19 T:3272 M:3493568512  NOTICE: -->Python Interpreter Initialized<--
  170. 21:58:19 T:3272 M:3492835328  NOTICE: 'TRAKT: ----------- trakt by Sean Rudford, version 0.1.3 -----------'
  171. 21:58:19 T:3272 M:3492835328  NOTICE: 'TRAKT: ::Settings::'
  172. 21:58:19 T:3272 M:3492835328  NOTICE: 'TRAKT: AutoStart: True'
  173. 21:58:19 T:3272 M:3492835328  NOTICE: 'TRAKT: RunBackground: False'
  174. 21:58:19 T:3272 M:3492835328  NOTICE: 'TRAKT: Username: Gumbyohson@gmail.com'
  175. 21:58:19 T:3272 M:3492835328  NOTICE: 'TRAKT: Password: 828gumby'
  176. 21:58:19 T:3272 M:3492835328  NOTICE: 'TRAKT: AutoSubmitVideo:True'
  177. 21:58:19 T:3272 M:3492835328  NOTICE: 'TRAKT: VideoThreshold: 70'
  178. 21:58:19 T:3272 M:3492835328  NOTICE: 'TRAKT: Startup: True'
  179. 21:58:19 T:3272 M:3492835328  NOTICE: 'TRAKT: ::Settings::'
  180. 21:58:19 T:3272 M:3492835328  NOTICE: 'TRAKT: Entering idle state, waiting for media playing...'
  181. 21:58:19 T:3272 M:3492818944  NOTICE: 'TRAKT: Resetting last update timestamp'
  182. 21:58:20 T:7020 M:3491954688   ERROR: CRemoteControl::Connect - failed to connect
  183. 21:58:22 T:2012 M:3492265984  NOTICE: Trakt Utilities: successfully uploaded seen movies:
  184. 21:58:22 T:2012 M:3492265984  NOTICE: Trakt Utilities: inserted: 0 already_exist: 0 skipped: 9
  185. 21:58:22 T:2012 M:3492261888  NOTICE: Trakt Utilities: skipped movies: [{u'year': 2004, u'plays': 1, u'last_played': 1299633044, u'imdb_id': u'tt1467299', u'title': u'Blade of the Phantom Master '}, {u'year': 2006, u'plays': 1, u'last_played': 1299633113, u'imdb_id': u'tt1105263', u'title': u'Bleach: Memories of Nobody'}, {u'year': 2009, u'plays': 1, u'last_played': 1299634948, u'imdb_id': u'tt1414518', u'title': u'Eureka 7- Pocket Full of Rainbows'}, {u'year': 2003, u'plays': 1, u'last_played': 1299635121, u'imdb_id': u'tt0805540', u'title': u'Hajime no Ippo: Champion Road'}, {u'year': 2008, u'plays': 1, u'last_played': 1299635157, u'imdb_id': u'tt1262906', u'title': u'Here Be Dragons'}, {u'year': 2009, u'plays': 1, u'last_played': 1299636238, u'imdb_id': u'tt1481363', u'title': u'Naruto Shippuuden Movie 3: Inheritors of the Will of Fire'}, {u'year': 2004, u'plays': 1, u'last_played': 1299636247, u'imdb_id': u'tt0476680', u'title': u'Naruto the Movie: Ninja Clash in the Land of Snow'}, {u'year': 2005, u'plays': 1, u'last_played': 1299636240, u'imdb_id': u'tt0791188', u'title': u'Naruto the Movie 2: Legend of the Stone of Gelel'}, {u'year': 2006, u'plays': 1, u'last_played': 1299636243, u'imdb_id': u'tt1071815', u'title': u'Naruto the Movie 3: Guardians of the Crescent Moon Kingdom'}]
  186. 21:58:22 T:2012 M:3492257792  NOTICE: Trakt Utilities: searching local...
  187. 21:58:22 T:2012 M:3492253696  NOTICE: Trakt Utilities: autostart sync seen tvshows
  188. 21:58:22 T:2488 M:3492253696   ERROR: Texture manager unable to load file: C:\Users\Gumby\AppData\Roaming\XBMC\addons\script.TraktUtilities\icon.png
  189. 21:58:25 T:7020 M:3492315136   ERROR: CRemoteControl::Connect - failed to connect
  190. 21:58:32 T:2488 M:3478552576   ERROR: Previous line repeats 1 times.
  191. 21:58:32 T:2488 M:3478552576   ERROR: Window Translator: Can't find window scriptsdebuginfo
  192. 21:58:32 T:2488 M:3478552576   ERROR: Window Translator: Can't find window pluginsettings
  193. 21:58:32 T:2488 M:3478544384   ERROR: Error evaluating boolean expression Window.IsActive(MovieInformation) | Window.IsActive(MusicInformation) | Window.IsActive(SongInformation) | Window.IsActive(FileBrowser) | Window.IsActive(ScriptsDebugInfo) | Window.IsActive(PluginSettings) | Window.IsActive(ContentSettings) | Window.IsActive(SelectDialog) | Window.IsActive(FileStackingDialog) | Window.IsActive(MediaSource) | Window.IsActive(PictureInfo) | Window.IsActive(PlayerControls) | Window.IsActive(VirtualKeyboard) | Window.IsActive(NumericInput) | Window.IsActive(ProfileSettings) | Window.IsActive(LockSettings) | Window.IsActive(SmartPlaylistEditor) | Window.IsActive(SmartPlaylistRule) | Window.IsActive(script-Apple_Movie_Trailers-settings.xml) | Window.IsActive(script-Apple_Movie_Trailers-chooser.xml) | Window.IsActive(script-Apple_Movie_Trailers-search.xml) | Window.IsActive(script-Apple_Movie_Trailers-showtimes.xml) | Window.IsActive(script-XBMC_Lyrics-settings.xml)
  194. 21:58:32 T:1744 M:3476971520 WARNING: XFILE::CFactoryDirectory::Create - Unsupported protocol(script) in script://
  195. 21:58:34 T:2012 M:3474980864  NOTICE: Trakt Utilities: successfully uploaded collection: 0 episodes marked as seen
  196. 21:58:34 T:3272 M:3474911232  NOTICE: 'TRAKT: Resetting last update timestamp'
  197. 21:58:35 T:2012 M:3477028864  NOTICE: Trakt Utilities: successfully uploaded collection: 0 episodes marked as seen
  198. 21:58:35 T:7020 M:3477057536   ERROR: CRemoteControl::Connect - failed to connect
  199. 21:58:36 T:2012 M:3475714048  NOTICE: Trakt Utilities: successfully uploaded collection: 0 episodes marked as seen
  200. 21:58:37 T:2012 M:3476127744  NOTICE: Trakt Utilities: successfully uploaded collection: 0 episodes marked as seen
  201. 21:58:38 T:2012 M:3475935232  NOTICE: Trakt Utilities: successfully uploaded collection: 0 episodes marked as seen
  202. 21:58:38 T:2012 M:3475976192  NOTICE: Trakt Utilities: successfully uploaded collection: 0 episodes marked as seen
  203. 21:58:39 T:2012 M:3476013056  NOTICE: Trakt Utilities: successfully uploaded collection: 0 episodes marked as seen
  204. 21:58:40 T:7020 M:3475914752   ERROR: CRemoteControl::Connect - failed to connect
  205. 21:58:40 T:2012 M:3477786624  NOTICE: Trakt Utilities: successfully uploaded collection: 0 episodes marked as seen
  206. 21:58:41 T:3144 M:3476353024  NOTICE: -->Python Interpreter Initialized<--
  207. 21:58:41 T:3144 M:3475763200  NOTICE: Trakt Utilities: default: script.TraktUtilities - version: 0.2.1
  208. 21:58:41 T:2012 M:3475017728  NOTICE: Trakt Utilities: successfully uploaded collection: 0 episodes marked as seen
  209. 21:58:45 T:7020 M:3476623360   ERROR: CRemoteControl::Connect - failed to connect
  210. 21:58:47 T:2012 M:3476615168  NOTICE: Trakt Utilities: Error uploading tvshow collection: show not found
  211. 21:58:48 T:2012 M:3478310912  NOTICE: Trakt Utilities: successfully uploaded collection: 0 episodes marked as seen
  212. 21:58:49 T:3272 M:3477790720  NOTICE: 'TRAKT: Resetting last update timestamp'
  213. 21:58:50 T:7020 M:3477483520   ERROR: CRemoteControl::Connect - failed to connect
  214. 21:58:55 T:3144 M:3477757952   ERROR: Previous line repeats 1 times.
  215. 21:58:55 T:3144 M:3477757952  NOTICE: Trakt Utilities: Select: 2
  216. 21:58:56 T:2012 M:3478446080  NOTICE: Trakt Utilities: Error uploading tvshow collection: show not found
  217. 21:58:57 T:2012 M:3478736896  NOTICE: Trakt Utilities: successfully uploaded collection: 0 episodes marked as seen
  218. 21:58:58 T:2012 M:3478310912  NOTICE: Trakt Utilities: successfully uploaded collection: 0 episodes marked as seen
  219. 21:58:59 T:2012 M:3478106112  NOTICE: Trakt Utilities: successfully uploaded collection: 0 episodes marked as seen
  220. 21:59:00 T:2012 M:3473276928  NOTICE: Trakt Utilities: successfully uploaded collection: 0 episodes marked as seen
  221. 21:59:00 T:7020 M:3472719872   ERROR: CRemoteControl::Connect - failed to connect
  222. 21:59:01 T:2012 M:3473367040  NOTICE: Trakt Utilities: successfully uploaded collection: 0 episodes marked as seen
  223. 21:59:02 T:2012 M:3467841536  NOTICE: Trakt Utilities: Error uploading tvshow collection: show not found
  224. 21:59:04 T:2012 M:3465232384  NOTICE: Trakt Utilities: successfully uploaded collection: 0 episodes marked as seen
  225. 21:59:04 T:3272 M:3462205440  NOTICE: 'TRAKT: Resetting last update timestamp'
  226. 21:59:05 T:2012 M:3462205440  NOTICE: Trakt Utilities: successfully uploaded collection: 0 episodes marked as seen
  227. 21:59:05 T:7020 M:3462111232   ERROR: CRemoteControl::Connect - failed to connect
  228. 21:59:05 T:2012 M:3461754880  NOTICE: Trakt Utilities: successfully uploaded collection: 0 episodes marked as seen
  229. 21:59:06 T:2012 M:3461885952  NOTICE: Trakt Utilities: successfully uploaded collection: 0 episodes marked as seen
  230. 21:59:08 T:2012 M:3461472256  NOTICE: Trakt Utilities: successfully uploaded collection: 0 episodes marked as seen
  231. 21:59:09 T:2012 M:3463303168  NOTICE: Trakt Utilities: successfully uploaded collection: 0 episodes marked as seen
  232. 21:59:10 T:2012 M:3463188480  NOTICE: Trakt Utilities: successfully uploaded collection: 0 episodes marked as seen
  233. 21:59:10 T:7020 M:3463720960   ERROR: CRemoteControl::Connect - failed to connect
  234. 21:59:11 T:2012 M:3463286784  NOTICE: Trakt Utilities: successfully uploaded collection: 0 episodes marked as seen
  235. 21:59:12 T:2012 M:3462631424  NOTICE: Trakt Utilities: successfully uploaded collection: 0 episodes marked as seen
  236. 21:59:12 T:3144 M:3462348800  NOTICE: Trakt Utilities: successfully uploaded collection: 0 episodes added to your library
  237. 21:59:12 T:2012 M:3461496832  NOTICE: Trakt Utilities: successfully uploaded collection: 0 episodes marked as seen
  238. 21:59:13 T:3144 M:3461181440  NOTICE: Trakt Utilities: successfully uploaded collection: 0 episodes added to your library
  239. 21:59:13 T:2012 M:3461226496  NOTICE: Trakt Utilities: successfully uploaded collection: 0 episodes marked as seen
  240. 21:59:14 T:788 M:3460890624  NOTICE: -->Python Interpreter Initialized<--
  241. 21:59:14 T:2012 M:3460468736  NOTICE: Trakt Utilities: successfully uploaded collection: 0 episodes marked as seen
  242. 21:59:15 T:7020 M:3460468736   ERROR: CRemoteControl::Connect - failed to connect
  243. 21:59:15 T:2012 M:3460468736  NOTICE: Trakt Utilities: successfully uploaded collection: 0 episodes marked as seen
  244. 21:59:17 T:2012 M:3462021120  NOTICE: Trakt Utilities: successfully uploaded collection: 0 episodes marked as seen
  245. 21:59:18 T:2012 M:3460403200  NOTICE: Trakt Utilities: successfully uploaded collection: 0 episodes marked as seen
  246. 21:59:19 T:3272 M:3461222400  NOTICE: 'TRAKT: Resetting last update timestamp'
  247. 21:59:20 T:2012 M:3461316608  NOTICE: Trakt Utilities: successfully uploaded collection: 0 episodes marked as seen
  248. 21:59:20 T:7020 M:3461185536   ERROR: CRemoteControl::Connect - failed to connect
  249. 21:59:21 T:2012 M:3461009408  NOTICE: Trakt Utilities: successfully uploaded collection: 0 episodes marked as seen
  250. 21:59:21 T:2012 M:3461087232  NOTICE: Trakt Utilities: successfully uploaded collection: 0 episodes marked as seen
  251. 21:59:22 T:3144 M:3461132288  NOTICE: Trakt Utilities: Error uploading tvshow collection: show not found
  252. 21:59:22 T:2012 M:3458560000  NOTICE: Trakt Utilities: successfully uploaded collection: 0 episodes marked as seen
  253. 21:59:23 T:3144 M:3458256896  NOTICE: Trakt Utilities: successfully uploaded collection: 0 episodes added to your library
  254. 21:59:24 T:3144 M:3445346304  NOTICE: Trakt Utilities: successfully uploaded collection: 0 episodes added to your library
  255. 21:59:24 T:3144 M:3457544192  NOTICE: Trakt Utilities: successfully uploaded collection: 0 episodes added to your library
  256. 21:59:25 T:7020 M:3457544192   ERROR: CRemoteControl::Connect - failed to connect
  257. 21:59:29 T:2012 M:3450327040  NOTICE: Trakt Utilities: Error uploading tvshow collection: show not found
  258. 21:59:30 T:2012 M:3452678144  NOTICE: Trakt Utilities: successfully uploaded collection: 0 episodes marked as seen
  259. 21:59:30 T:7020 M:3452669952   ERROR: CRemoteControl::Connect - failed to connect
  260. 21:59:31 T:2012 M:3452137472  NOTICE: Trakt Utilities: successfully uploaded collection: 0 episodes marked as seen
  261. 21:59:32 T:3144 M:3452137472  NOTICE: Trakt Utilities: Error uploading tvshow collection: show not found
  262. 21:59:32 T:2012 M:3452137472  NOTICE: Trakt Utilities: successfully uploaded collection: 0 episodes marked as seen
  263. 21:59:33 T:3144 M:3451777024  NOTICE: Trakt Utilities: successfully uploaded collection: 0 episodes added to your library
  264. 21:59:33 T:2012 M:3451760640  NOTICE: Trakt Utilities: successfully uploaded collection: 0 episodes marked as seen
  265. 21:59:34 T:3144 M:3452542976  NOTICE: Trakt Utilities: successfully uploaded collection: 0 episodes added to your library
  266. 21:59:34 T:3272 M:3452338176  NOTICE: 'TRAKT: Resetting last update timestamp'
  267. 21:59:35 T:2012 M:3452399616  NOTICE: Trakt Utilities: successfully uploaded collection: 0 episodes marked as seen
  268. 21:59:35 T:3144 M:3451981824  NOTICE: Trakt Utilities: successfully uploaded collection: 0 episodes added to your library
  269. 21:59:35 T:7020 M:3451965440   ERROR: CRemoteControl::Connect - failed to connect
  270. 21:59:36 T:2012 M:3452026880  NOTICE: Trakt Utilities: successfully uploaded collection: 0 episodes marked as seen
  271. 21:59:36 T:3144 M:3452006400  NOTICE: Trakt Utilities: successfully uploaded collection: 0 episodes added to your library
  272. 21:59:37 T:2012 M:3452653568  NOTICE: Trakt Utilities: successfully uploaded collection: 0 episodes marked as seen
  273. 21:59:37 T:3144 M:3452637184  NOTICE: Trakt Utilities: successfully uploaded collection: 0 episodes added to your library
  274. 21:59:38 T:3144 M:3452370944  NOTICE: Trakt Utilities: successfully uploaded collection: 0 episodes added to your library
  275. 21:59:38 T:2012 M:3452358656  NOTICE: Trakt Utilities: Error uploading tvshow collection: show not found
  276. 21:59:40 T:2012 M:3452370944  NOTICE: Trakt Utilities: successfully uploaded collection: 0 episodes marked as seen
  277. 21:59:40 T:7020 M:3446808576   ERROR: CRemoteControl::Connect - failed to connect
  278. 21:59:41 T:2012 M:3445833728  NOTICE: Trakt Utilities: successfully uploaded collection: 0 episodes marked as seen
  279. 21:59:42 T:3144 M:3446145024  NOTICE: Trakt Utilities: Error uploading tvshow collection: show not found
  280. 21:59:42 T:2012 M:3446128640  NOTICE: Trakt Utilities: successfully uploaded collection: 0 episodes marked as seen
  281. 21:59:43 T:3144 M:3446317056  NOTICE: Trakt Utilities: successfully uploaded collection: 0 episodes added to your library
  282. 21:59:43 T:2012 M:3446312960  NOTICE: Trakt Utilities: successfully uploaded collection: 0 episodes marked as seen
  283. 21:59:45 T:7020 M:3446317056   ERROR: CRemoteControl::Connect - failed to connect
  284. 21:59:47 T:3144 M:3452395520  NOTICE: Trakt Utilities: Error uploading tvshow collection: show not found
  285. 21:59:48 T:3144 M:3451850752  NOTICE: Trakt Utilities: successfully uploaded collection: 0 episodes added to your library
  286. 21:59:49 T:3144 M:3451408384  NOTICE: Trakt Utilities: successfully uploaded collection: 0 episodes added to your library
  287. 21:59:49 T:3272 M:3451408384  NOTICE: 'TRAKT: Resetting last update timestamp'
  288. 21:59:51 T:3144 M:3450392576  NOTICE: Trakt Utilities: successfully uploaded collection: 0 episodes added to your library
  289. 21:59:51 T:7020 M:3450404864   ERROR: CRemoteControl::Connect - failed to connect
  290. 21:59:51 T:2012 M:3450425344  NOTICE: Trakt Utilities: Error uploading tvshow collection: show not found
  291. 21:59:52 T:3144 M:3450429440  NOTICE: Trakt Utilities: successfully uploaded collection: 0 episodes added to your library
  292. 21:59:52 T:2012 M:3450425344  NOTICE: Trakt Utilities: successfully uploaded collection: 0 episodes marked as seen
  293. 21:59:53 T:3144 M:3450425344  NOTICE: Trakt Utilities: successfully uploaded collection: 0 episodes added to your library
  294. 21:59:53 T:2012 M:3449942016  NOTICE: Trakt Utilities: successfully uploaded collection: 0 episodes marked as seen
  295. 21:59:54 T:2012 M:3452628992  NOTICE: Trakt Utilities: successfully uploaded collection: 0 episodes marked as seen
  296. 21:59:55 T:2012 M:3452542976  NOTICE: Trakt Utilities: successfully uploaded collection: 0 episodes marked as seen
  297. 21:59:56 T:7020 M:3449982976   ERROR: CRemoteControl::Connect - failed to connect
  298. 21:59:57 T:2012 M:3448094720  NOTICE: Trakt Utilities: successfully uploaded collection: 0 episodes marked as seen
  299. 21:59:59 T:2012 M:3449847808  NOTICE: Trakt Utilities: successfully uploaded collection: 0 episodes marked as seen
  300. 22:00:00 T:2012 M:3448774656  NOTICE: Trakt Utilities: successfully uploaded collection: 0 episodes marked as seen
  301. 22:00:01 T:2012 M:3448791040  NOTICE: Trakt Utilities: successfully uploaded collection: 0 episodes marked as seen
  302. 22:00:01 T:7020 M:3448225792   ERROR: CRemoteControl::Connect - failed to connect
  303. 22:00:02 T:3144 M:3448176640  NOTICE: Trakt Utilities: Error uploading tvshow collection: show not found
  304. 22:00:02 T:2012 M:3448176640  NOTICE: Trakt Utilities: successfully uploaded collection: 0 episodes marked as seen
  305. 22:00:03 T:3144 M:3448250368  NOTICE: Trakt Utilities: successfully uploaded collection: 0 episodes added to your library
  306. 22:00:03 T:2012 M:3448229888  NOTICE: Trakt Utilities: successfully uploaded collection: 0 episodes marked as seen
  307. 22:00:03 T:3144 M:3448184832  NOTICE: Trakt Utilities: successfully uploaded collection: 0 episodes added to your library
  308. 22:00:04 T:3144 M:3448078336  NOTICE: Trakt Utilities: successfully uploaded collection: 0 episodes added to your library
  309. 22:00:04 T:2012 M:3448078336  NOTICE: Trakt Utilities: successfully uploaded collection: 0 episodes marked as seen
  310. 22:00:04 T:3272 M:3448061952  NOTICE: 'TRAKT: Resetting last update timestamp'
  311. 22:00:05 T:3144 M:3448012800  NOTICE: Trakt Utilities: successfully uploaded collection: 0 episodes added to your library
  312. 22:00:05 T:2012 M:3448012800  NOTICE: Trakt Utilities: successfully uploaded collection: 0 episodes marked as seen
  313. 22:00:06 T:3144 M:3448467456  NOTICE: Trakt Utilities: successfully uploaded collection: 0 episodes added to your library
  314. 22:00:06 T:7020 M:3448516608   ERROR: CRemoteControl::Connect - failed to connect
  315. 22:00:06 T:2012 M:3448651776  NOTICE: Trakt Utilities: successfully uploaded collection: 0 episodes marked as seen
  316. 22:00:07 T:3144 M:3448655872  NOTICE: Trakt Utilities: successfully uploaded collection: 0 episodes added to your library
  317. 22:00:07 T:2012 M:3448709120  NOTICE: Trakt Utilities: successfully uploaded collection: 0 episodes marked as seen
  318. 22:00:09 T:3144 M:3450949632  NOTICE: Trakt Utilities: successfully uploaded collection: 0 episodes added to your library
  319. 22:00:09 T:2012 M:3450933248  NOTICE: Trakt Utilities: successfully uploaded collection: 0 episodes marked as seen
  320. 22:00:10 T:3144 M:3450875904  NOTICE: Trakt Utilities: successfully uploaded collection: 0 episodes added to your library
  321. 22:00:10 T:2012 M:3450875904  NOTICE: Trakt Utilities: successfully uploaded collection: 0 episodes marked as seen
  322. 22:00:11 T:7020 M:3450871808   ERROR: CRemoteControl::Connect - failed to connect
  323. 22:00:11 T:2012 M:3450609664  NOTICE: Trakt Utilities: successfully uploaded collection: 0 episodes marked as seen
  324. 22:00:12 T:3144 M:3450626048  NOTICE: Trakt Utilities: successfully uploaded collection: 0 episodes added to your library
  325. 22:00:13 T:2012 M:3450212352  NOTICE: Trakt Utilities: successfully uploaded collection: 0 episodes marked as seen
  326. 22:00:13 T:3144 M:3450212352  NOTICE: Trakt Utilities: successfully uploaded collection: 0 episodes added to your library
  327. 22:00:14 T:3144 M:3450757120  NOTICE: Trakt Utilities: successfully uploaded collection: 0 episodes added to your library
  328. 22:00:14 T:2012 M:3450773504  NOTICE: Trakt Utilities: successfully uploaded collection: 0 episodes marked as seen
  329. 22:00:15 T:3144 M:3450097664  NOTICE: Trakt Utilities: successfully uploaded collection: 0 episodes added to your library
  330. 22:00:15 T:2012 M:3450114048  NOTICE: Trakt Utilities: successfully uploaded collection: 0 episodes marked as seen
  331. 22:00:16 T:3144 M:3449819136  NOTICE: Trakt Utilities: successfully uploaded collection: 0 episodes added to your library
  332. 22:00:16 T:2012 M:3449819136  NOTICE: Trakt Utilities: successfully uploaded collection: 0 episodes marked as seen
  333. 22:00:17 T:2012 M:3449700352  NOTICE: Trakt Utilities: successfully uploaded collection: 0 episodes marked as seen
  334. 22:00:17 T:3144 M:3451621376  NOTICE: Trakt Utilities: successfully uploaded collection: 0 episodes added to your library
  335. 22:00:17 T:7020 M:3451613184   ERROR: CRemoteControl::Connect - failed to connect
  336. 22:00:18 T:3144 M:3451633664  NOTICE: Trakt Utilities: successfully uploaded collection: 0 episodes added to your library
  337. 22:00:18 T:2012 M:3451617280  NOTICE: Trakt Utilities: Error uploading tvshow collection: show not found
  338. 22:00:19 T:3144 M:3451617280  NOTICE: Trakt Utilities: successfully uploaded collection: 0 episodes added to your library
  339. 22:00:19 T:2012 M:3451617280  NOTICE: Trakt Utilities: successfully uploaded collection: 0 episodes marked as seen
  340. 22:00:19 T:3272 M:3450634240  NOTICE: 'TRAKT: Resetting last update timestamp'
  341. 22:00:20 T:3144 M:3451850752  NOTICE: Trakt Utilities: successfully uploaded collection: 0 episodes added to your library
  342. 22:00:20 T:2012 M:3451850752  NOTICE: Trakt Utilities: successfully uploaded collection: 0 episodes marked as seen
  343. 22:00:21 T:3144 M:3451015168  NOTICE: Trakt Utilities: successfully uploaded collection: 0 episodes added to your library
  344. 22:00:21 T:2012 M:3450613760  NOTICE: Trakt Utilities: Error uploading tvshow collection: show not found
  345. 22:00:22 T:3144 M:3450609664  NOTICE: Trakt Utilities: successfully uploaded collection: 0 episodes added to your library
  346. 22:00:22 T:7020 M:3451346944   ERROR: CRemoteControl::Connect - failed to connect
  347. 22:00:22 T:3144 M:3451371520  NOTICE: Trakt Utilities: successfully uploaded collection: 0 episodes added to your library
  348. 22:00:22 T:2012 M:3451359232  NOTICE: Trakt Utilities: successfully uploaded collection: 0 episodes marked as seen
  349. 22:00:23 T:3144 M:3451047936  NOTICE: Trakt Utilities: successfully uploaded collection: 0 episodes added to your library
  350. 22:00:23 T:2012 M:3451047936  NOTICE: Trakt Utilities: successfully uploaded collection: 0 episodes marked as seen
  351. 22:00:24 T:3144 M:3451015168  NOTICE: Trakt Utilities: successfully uploaded collection: 0 episodes added to your library
  352. 22:00:24 T:2012 M:3451035648  NOTICE: Trakt Utilities: successfully uploaded collection: 0 episodes marked as seen
  353. 22:00:24 T:2012 M:3451035648   ERROR: Error Type: exceptions.NameError
  354. 22:00:24 T:2012 M:3451035648   ERROR: Error Contents: global name 'notificationxbmcgui' is not defined
  355. 22:00:24 T:2012 M:3450986496   ERROR: Traceback (most recent call last):
  356.                                               File "C:\Users\Gumby\AppData\Roaming\XBMC\addons\script.TraktUtilities\service.py", line 43, in ?
  357.                                                 autostart()
  358.                                               File "C:\Users\Gumby\AppData\Roaming\XBMC\addons\script.TraktUtilities\service.py", line 35, in autostart
  359.                                                 syncSeenTVShows(True)
  360.                                               File "C:\Users\Gumby\AppData\Roaming\XBMC\addons\script.TraktUtilities\utilities.py", line 950, in syncSeenTVShows
  361.                                                 notificationxbmcgui.Dialog().ok("Trakt Utilities", __language__(1145).encode( "utf-8", "ignore" ) + str(error)) # Error uploading seen TVShows
  362.                                             NameError: global name 'notificationxbmcgui' is not defined
  363. 22:00:25 T:3144 M:3450609664  NOTICE: Trakt Utilities: successfully uploaded collection: 0 episodes added to your library
  364. 22:00:26 T:3144 M:3450748928  NOTICE: Trakt Utilities: successfully uploaded collection: 0 episodes added to your library
  365. 22:00:27 T:3144 M:3450712064  NOTICE: Trakt Utilities: successfully uploaded collection: 0 episodes added to your library
  366. 22:00:27 T:7020 M:3450023936   ERROR: CRemoteControl::Connect - failed to connect
  367. 22:00:34 T:3272 M:3455946752   ERROR: Previous line repeats 1 times.
  368. 22:00:34 T:3272 M:3455946752  NOTICE: 'TRAKT: Resetting last update timestamp'
  369. 22:00:37 T:5996 M:3455975424  NOTICE: -->Python Interpreter Initialized<--
  370. 22:00:37 T:5996 M:3455406080  NOTICE: Trakt Utilities: default: script.TraktUtilities - version: 0.2.1
  371. 22:00:37 T:7020 M:3455422464   ERROR: CRemoteControl::Connect - failed to connect
  372. 22:00:39 T:5996 M:3457941504  NOTICE: Trakt Utilities: Select: 2
  373. 22:00:42 T:7020 M:3458347008   ERROR: CRemoteControl::Connect - failed to connect
  374. 22:00:49 T:3272 M:3442466816   ERROR: Previous line repeats 1 times.
  375. 22:00:49 T:3272 M:3442466816  NOTICE: 'TRAKT: Resetting last update timestamp'
  376. 22:00:52 T:5996 M:3441729536  NOTICE: Trakt Utilities: successfully uploaded collection: 0 episodes added to your library
  377. 22:00:52 T:7020 M:3441729536   ERROR: CRemoteControl::Connect - failed to connect
  378. 22:00:53 T:5996 M:3441483776  NOTICE: Trakt Utilities: successfully uploaded collection: 0 episodes added to your library
  379. 22:00:57 T:7020 M:3441250304   ERROR: CRemoteControl::Connect - failed to connect
  380. 22:00:58 T:5996 M:3441119232  NOTICE: Trakt Utilities: Error uploading tvshow collection: show not found
  381. 22:00:58 T:5996 M:3442831360  NOTICE: Trakt Utilities: successfully uploaded collection: 0 episodes added to your library
  382. 22:00:59 T:5996 M:3442716672  NOTICE: Trakt Utilities: successfully uploaded collection: 0 episodes added to your library
  383. 22:01:00 T:5996 M:3442626560  NOTICE: Trakt Utilities: successfully uploaded collection: 0 episodes added to your library
  384. 22:01:02 T:7020 M:3442151424   ERROR: CRemoteControl::Connect - failed to connect
  385. 22:01:04 T:3272 M:3442855936  NOTICE: 'TRAKT: Resetting last update timestamp'
  386. 22:01:07 T:7020 M:3443515392   ERROR: CRemoteControl::Connect - failed to connect
  387. 22:01:10 T:5996 M:3443712000  NOTICE: Trakt Utilities: Error uploading tvshow collection: show not found
  388. 22:01:11 T:5996 M:3443187712  NOTICE: Trakt Utilities: successfully uploaded collection: 0 episodes added to your library
  389. 22:01:12 T:5996 M:3443187712  NOTICE: Trakt Utilities: successfully uploaded collection: 0 episodes added to your library
  390. 22:01:12 T:7020 M:3443208192   ERROR: CRemoteControl::Connect - failed to connect
  391. 22:01:13 T:5996 M:3443208192  NOTICE: Trakt Utilities: successfully uploaded collection: 0 episodes added to your library
  392. 22:01:14 T:5996 M:3443122176  NOTICE: Trakt Utilities: successfully uploaded collection: 0 episodes added to your library
  393. 22:01:15 T:5996 M:3442491392  NOTICE: Trakt Utilities: successfully uploaded collection: 0 episodes added to your library
  394. 22:01:16 T:5996 M:3442647040  NOTICE: Trakt Utilities: successfully uploaded collection: 0 episodes added to your library
  395. 22:01:17 T:7020 M:3442409472   ERROR: CRemoteControl::Connect - failed to connect
  396. 22:01:19 T:3272 M:3442790400  NOTICE: 'TRAKT: Resetting last update timestamp'
  397. 22:01:21 T:5996 M:3441197056  NOTICE: Trakt Utilities: Error uploading tvshow collection: show not found
  398. 22:01:22 T:5996 M:3440664576  NOTICE: Trakt Utilities: successfully uploaded collection: 0 episodes added to your library
  399. 22:01:22 T:7020 M:3440783360   ERROR: CRemoteControl::Connect - failed to connect
  400. 22:01:23 T:5996 M:3440508928  NOTICE: Trakt Utilities: Error uploading tvshow collection: show not found
  401. 22:01:23 T:5996 M:3440619520  NOTICE: Trakt Utilities: successfully uploaded collection: 0 episodes added to your library
  402. 22:01:24 T:5996 M:3440603136  NOTICE: Trakt Utilities: successfully uploaded collection: 0 episodes added to your library
  403. 22:01:26 T:5996 M:3440570368  NOTICE: Trakt Utilities: successfully uploaded collection: 0 episodes added to your library
  404. 22:01:27 T:5996 M:3440521216  NOTICE: Trakt Utilities: successfully uploaded collection: 0 episodes added to your library
  405. 22:01:27 T:7020 M:3440525312   ERROR: CRemoteControl::Connect - failed to connect
  406. 22:01:28 T:5996 M:3440418816  NOTICE: Trakt Utilities: successfully uploaded collection: 0 episodes added to your library
  407. 22:01:29 T:5996 M:3439550464  NOTICE: Trakt Utilities: Error uploading tvshow collection: show not found
  408. 22:01:30 T:5996 M:3439853568  NOTICE: Trakt Utilities: successfully uploaded collection: 0 episodes added to your library
  409. 22:01:31 T:5996 M:3439964160  NOTICE: Trakt Utilities: successfully uploaded collection: 0 episodes added to your library
  410. 22:01:32 T:5996 M:3440058368  NOTICE: Trakt Utilities: successfully uploaded collection: 0 episodes added to your library
  411. 22:01:32 T:7020 M:3440107520   ERROR: CRemoteControl::Connect - failed to connect
  412. 22:01:34 T:3272 M:3440353280  NOTICE: 'TRAKT: Resetting last update timestamp'
  413. 22:01:35 T:5996 M:3427487744  NOTICE: Trakt Utilities: successfully uploaded collection: 0 episodes added to your library
  414. 22:01:36 T:5996 M:3432095744  NOTICE: Trakt Utilities: successfully uploaded collection: 0 episodes added to your library
  415. 22:01:37 T:7020 M:3432083456   ERROR: CRemoteControl::Connect - failed to connect
  416. 22:01:38 T:5996 M:3433148416  NOTICE: Trakt Utilities: successfully uploaded collection: 0 episodes added to your library
  417. 22:01:39 T:5996 M:3433222144  NOTICE: Trakt Utilities: successfully uploaded collection: 0 episodes added to your library
  418. 22:01:40 T:5996 M:3436847104  NOTICE: Trakt Utilities: successfully uploaded collection: 0 episodes added to your library
  419. 22:01:41 T:5996 M:3436560384  NOTICE: Trakt Utilities: successfully uploaded collection: 0 episodes added to your library
  420. 22:01:41 T:5996 M:3436662784  NOTICE: Trakt Utilities: successfully uploaded collection: 0 episodes added to your library
  421. 22:01:42 T:7020 M:3437654016   ERROR: CRemoteControl::Connect - failed to connect
  422. 22:01:45 T:5996 M:3439439872  NOTICE: Trakt Utilities: successfully uploaded collection: 0 episodes added to your library
  423. 22:01:47 T:5996 M:3439128576  NOTICE: Trakt Utilities: successfully uploaded collection: 0 episodes added to your library
  424. 22:01:47 T:7020 M:3439144960   ERROR: CRemoteControl::Connect - failed to connect
  425. 22:01:48 T:5996 M:3440521216  NOTICE: Trakt Utilities: successfully uploaded collection: 0 episodes added to your library
  426. 22:01:49 T:5996 M:3440525312  NOTICE: Trakt Utilities: successfully uploaded collection: 0 episodes added to your library
  427. 22:01:49 T:3272 M:3440553984  NOTICE: 'TRAKT: Resetting last update timestamp'
  428. 22:01:50 T:5996 M:3440738304  NOTICE: Trakt Utilities: successfully uploaded collection: 0 episodes added to your library
  429. 22:01:51 T:5996 M:3442827264  NOTICE: Trakt Utilities: successfully uploaded collection: 0 episodes added to your library
  430. 22:01:52 T:7020 M:3443052544   ERROR: CRemoteControl::Connect - failed to connect
  431. 22:01:54 T:5996 M:3440451584  NOTICE: Trakt Utilities: successfully uploaded collection: 0 episodes added to your library
  432. 22:01:54 T:5996 M:3440627712  NOTICE: Trakt Utilities: successfully uploaded collection: 0 episodes added to your library
  433. 22:01:56 T:5996 M:3440840704  NOTICE: Trakt Utilities: successfully uploaded collection: 0 episodes added to your library
  434. 22:01:57 T:5996 M:3440590848  NOTICE: Trakt Utilities: successfully uploaded collection: 0 episodes added to your library
  435. 22:01:58 T:7020 M:3440652288   ERROR: CRemoteControl::Connect - failed to connect
  436. 22:01:59 T:5996 M:3440635904  NOTICE: Trakt Utilities: successfully uploaded collection: 0 episodes added to your library
  437. 22:02:00 T:5996 M:3440676864  NOTICE: Trakt Utilities: successfully uploaded collection: 0 episodes added to your library
  438. 22:02:01 T:5996 M:3440574464  NOTICE: Trakt Utilities: successfully uploaded collection: 0 episodes added to your library
  439. 22:02:01 T:5996 M:3440521216  NOTICE: Trakt Utilities: successfully uploaded collection: 0 episodes added to your library
  440. 22:02:02 T:5996 M:3442290688  NOTICE: Trakt Utilities: successfully uploaded collection: 0 episodes added to your library
  441. 22:02:03 T:7020 M:3442020352   ERROR: CRemoteControl::Connect - failed to connect
  442. 22:02:04 T:3272 M:3440705536  NOTICE: 'TRAKT: Resetting last update timestamp'
  443. 22:02:06 T:5996 M:3441258496  NOTICE: Trakt Utilities: Error uploading tvshow collection: show not found
  444. 22:02:07 T:5996 M:3441405952  NOTICE: Trakt Utilities: successfully uploaded collection: 0 episodes added to your library
  445. 22:02:08 T:5996 M:3441319936  NOTICE: Trakt Utilities: successfully uploaded collection: 0 episodes added to your library
  446. 22:02:08 T:7020 M:3441315840   ERROR: CRemoteControl::Connect - failed to connect
  447. 22:02:09 T:5996 M:3441299456  NOTICE: Trakt Utilities: successfully uploaded collection: 0 episodes added to your library
  448. 22:02:09 T:5996 M:3441356800  NOTICE: Trakt Utilities: successfully uploaded collection: 0 episodes added to your library
  449. 22:02:10 T:5996 M:3441442816  NOTICE: Trakt Utilities: successfully uploaded collection: 0 episodes added to your library
  450. 22:02:11 T:5996 M:3441410048  NOTICE: Trakt Utilities: successfully uploaded collection: 0 episodes added to your library
  451. 22:02:12 T:5996 M:3441426432  NOTICE: Trakt Utilities: successfully uploaded collection: 0 episodes added to your library
  452. 22:02:13 T:7020 M:3441418240   ERROR: CRemoteControl::Connect - failed to connect
  453. 22:02:13 T:5996 M:3441434624  NOTICE: Trakt Utilities: successfully uploaded collection: 0 episodes added to your library
  454. 22:02:14 T:5996 M:3441430528  NOTICE: Trakt Utilities: successfully uploaded collection: 0 episodes added to your library
  455. 22:02:15 T:5996 M:3441442816  NOTICE: Trakt Utilities: successfully uploaded collection: 0 episodes added to your library
  456. 22:02:16 T:5996 M:3441287168  NOTICE: Trakt Utilities: Error uploading tvshow collection: show not found
  457. 22:02:17 T:5996 M:3441160192  NOTICE: Trakt Utilities: successfully uploaded collection: 0 episodes added to your library
  458. 22:02:18 T:7020 M:3441115136   ERROR: CRemoteControl::Connect - failed to connect
  459. 22:02:18 T:5996 M:3441123328  NOTICE: Trakt Utilities: successfully uploaded collection: 0 episodes added to your library
  460. 22:02:19 T:5996 M:3442925568  NOTICE: Trakt Utilities: successfully uploaded collection: 0 episodes added to your library
  461. 22:02:19 T:3272 M:3442860032  NOTICE: 'TRAKT: Resetting last update timestamp'
  462. 22:02:21 T:5996 M:3442905088  NOTICE: Trakt Utilities: Error uploading tvshow collection: show not found
  463. 22:02:22 T:5996 M:3443335168  NOTICE: Trakt Utilities: successfully uploaded collection: 0 episodes added to your library
  464. 22:02:23 T:5996 M:3443331072  NOTICE: Trakt Utilities: successfully uploaded collection: 0 episodes added to your library
  465. 22:02:23 T:7020 M:3443314688   ERROR: CRemoteControl::Connect - failed to connect
  466. 22:02:29 T:5996 M:3442978816   ERROR: Previous line repeats 1 times.
  467. 22:02:29 T:5996 M:3442978816  NOTICE: Trakt Utilities: Error uploading tvshow collection: show not found
  468. 22:02:30 T:5996 M:3442999296  NOTICE: Trakt Utilities: successfully uploaded collection: 0 episodes added to your library
  469. 22:02:31 T:5996 M:3443019776  NOTICE: Trakt Utilities: successfully uploaded collection: 0 episodes added to your library
  470. 22:02:32 T:5996 M:3442876416  NOTICE: Trakt Utilities: successfully uploaded collection: 0 episodes added to your library
  471. 22:02:33 T:5996 M:3444617216  NOTICE: Trakt Utilities: successfully uploaded collection: 0 episodes added to your library
  472. 22:02:33 T:7020 M:3444617216   ERROR: CRemoteControl::Connect - failed to connect
  473. 22:02:34 T:5996 M:3443699712  NOTICE: Trakt Utilities: successfully uploaded collection: 0 episodes added to your library
  474. 22:02:34 T:3272 M:3444588544  NOTICE: 'TRAKT: Resetting last update timestamp'
  475. 22:02:35 T:5996 M:3445010432  NOTICE: Trakt Utilities: successfully uploaded collection: 0 episodes added to your library
  476. 22:02:36 T:5996 M:3445022720  NOTICE: Trakt Utilities: successfully uploaded collection: 0 episodes added to your library
  477. 22:02:37 T:5996 M:3444490240  NOTICE: Trakt Utilities: successfully uploaded collection: 0 episodes added to your library
  478. 22:02:38 T:7020 M:3443556352   ERROR: CRemoteControl::Connect - failed to connect
  479. 22:02:38 T:5996 M:3443572736  NOTICE: Trakt Utilities: successfully uploaded collection: 0 episodes added to your library
  480. 22:02:39 T:5996 M:3442868224  NOTICE: Trakt Utilities: successfully uploaded collection: 0 episodes added to your library
  481. 22:02:40 T:5996 M:3442909184  NOTICE: Trakt Utilities: successfully uploaded collection: 0 episodes added to your library
  482. 22:02:42 T:5996 M:3444277248  NOTICE: Trakt Utilities: successfully uploaded collection: 0 episodes added to your library
  483. 22:02:43 T:7020 M:3444248576   ERROR: CRemoteControl::Connect - failed to connect
  484. 22:02:44 T:5996 M:3444477952  NOTICE: Trakt Utilities: successfully uploaded collection: 0 episodes added to your library
  485. 22:02:45 T:5996 M:3443716096  NOTICE: Trakt Utilities: successfully uploaded collection: 0 episodes added to your library
  486. 22:02:46 T:5996 M:3443015680  NOTICE: Trakt Utilities: successfully uploaded collection: 0 episodes added to your library
  487. 22:02:47 T:5996 M:3443007488  NOTICE: Trakt Utilities: successfully uploaded collection: 0 episodes added to your library
  488. 22:02:48 T:5996 M:3443003392  NOTICE: Trakt Utilities: successfully uploaded collection: 0 episodes added to your library
  489. 22:02:48 T:7020 M:3442868224   ERROR: CRemoteControl::Connect - failed to connect
  490. 22:02:49 T:5996 M:3444314112  NOTICE: Trakt Utilities: successfully uploaded collection: 0 episodes added to your library
  491. 22:02:49 T:3272 M:3443548160  NOTICE: 'TRAKT: Resetting last update timestamp'
  492. 22:02:50 T:5996 M:3443535872  NOTICE: Trakt Utilities: successfully uploaded collection: 0 episodes added to your library
  493. 22:02:51 T:5996 M:3443544064  NOTICE: Trakt Utilities: Error uploading tvshow collection: show not found
  494. 22:02:52 T:5996 M:3443638272  NOTICE: Trakt Utilities: successfully uploaded collection: 0 episodes added to your library
  495. 22:02:53 T:5996 M:3444453376  NOTICE: Trakt Utilities: successfully uploaded collection: 0 episodes added to your library
  496. 22:02:53 T:7020 M:3444436992   ERROR: CRemoteControl::Connect - failed to connect
  497. 22:02:54 T:5996 M:3444457472  NOTICE: Trakt Utilities: successfully uploaded collection: 0 episodes added to your library
  498. 22:02:55 T:5996 M:3443769344  NOTICE: Trakt Utilities: successfully uploaded collection: 0 episodes added to your library
  499. 22:02:55 T:5996 M:3443826688  NOTICE: Trakt Utilities: successfully uploaded collection: 0 episodes added to your library
  500. 22:02:56 T:5996 M:3443740672  NOTICE: Trakt Utilities: successfully uploaded collection: 0 episodes added to your library
  501. 22:02:57 T:5996 M:3443437568  NOTICE: Trakt Utilities: successfully uploaded collection: 0 episodes added to your library
  502. 22:02:58 T:5996 M:3443486720  NOTICE: Trakt Utilities: successfully uploaded collection: 0 episodes added to your library
  503. 22:02:58 T:7020 M:3443478528   ERROR: CRemoteControl::Connect - failed to connect
  504. 22:02:59 T:5996 M:3444690944  NOTICE: Trakt Utilities: successfully uploaded collection: 0 episodes added to your library
  505. 22:03:03 T:7020 M:3443888128   ERROR: CRemoteControl::Connect - failed to connect
  506. 22:03:04 T:3272 M:3444772864  NOTICE: 'TRAKT: Resetting last update timestamp'
  507. 22:03:06 T:5996 M:3444887552  NOTICE: Trakt Utilities: Error uploading tvshow collection: show not found
  508. 22:03:07 T:5996 M:3444506624  NOTICE: Trakt Utilities: successfully uploaded collection: 0 episodes added to your library
  509. 22:03:08 T:5996 M:3444547584  NOTICE: Trakt Utilities: successfully uploaded collection: 0 episodes added to your library
  510. 22:03:08 T:7020 M:3444547584   ERROR: CRemoteControl::Connect - failed to connect
  511. 22:03:09 T:5996 M:3443855360  NOTICE: Trakt Utilities: successfully uploaded collection: 0 episodes added to your library
  512. 22:03:13 T:7020 M:3443478528   ERROR: CRemoteControl::Connect - failed to connect
  513. 22:03:19 T:3272 M:3444195328  NOTICE: 'TRAKT: Resetting last update timestamp'
  514. 22:03:21 T:5996 M:3444469760  NOTICE: Trakt Utilities: Error uploading tvshow collection: show not found
  515. 22:03:30 T:5996 M:3444416512  NOTICE: Trakt Utilities: Error uploading tvshow collection: show not found
  516. 22:03:32 T:5996 M:3444076544  NOTICE: Trakt Utilities: successfully uploaded collection: 0 episodes added to your library
  517. 22:03:33 T:5996 M:3443765248  NOTICE: Trakt Utilities: Error uploading tvshow collection: show not found
  518. 22:03:34 T:5996 M:3443105792  NOTICE: Trakt Utilities: successfully uploaded collection: 0 episodes added to your library
  519. 22:03:34 T:3272 M:3443138560  NOTICE: 'TRAKT: Resetting last update timestamp'
  520. 22:03:35 T:5996 M:3443179520  NOTICE: Trakt Utilities: successfully uploaded collection: 0 episodes added to your library
  521. 22:03:35 T:5996 M:3444105216  NOTICE: Trakt Utilities: successfully uploaded collection: 0 episodes added to your library
  522. 22:03:36 T:5996 M:3443765248  NOTICE: Trakt Utilities: successfully uploaded collection: 0 episodes added to your library
  523. 22:03:37 T:5996 M:3444523008  NOTICE: Trakt Utilities: successfully uploaded collection: 0 episodes added to your library
  524. 22:03:39 T:5996 M:3444547584  NOTICE: Trakt Utilities: successfully uploaded collection: 0 episodes added to your library
  525. 22:03:49 T:3272 M:3435085824  NOTICE: 'TRAKT: Resetting last update timestamp'
  526. 22:04:04 T:3272 M:3433852928  NOTICE: 'TRAKT: Resetting last update timestamp'
  527. 22:04:19 T:3272 M:3435700224  NOTICE: 'TRAKT: Resetting last update timestamp'
  528. 22:04:34 T:3272 M:3437879296  NOTICE: 'TRAKT: Resetting last update timestamp'
  529. 22:04:49 T:3272 M:3441266688  NOTICE: 'TRAKT: Resetting last update timestamp'
  530. 22:05:04 T:3272 M:3441537024  NOTICE: 'TRAKT: Resetting last update timestamp'
clone this paste RAW Paste Data